Location: D�pe
(52.6057°N, 8.1808°E)
Time: 14:45:48
(UTC+00:00)

Cosmos 1844 Rocket - Pass Details

Date: 29 October 2020
Orbit: 823 x 846 km, 71.0° (Epoch: 29 November)

Event Time Altitude Azimuth Distance (km) Brightness Sun altitude
Rises 20:08:31 0° 328° (NNW) 3,414 6.6 -37.0°
Reaches altitude 10° 20:10:58 10° 328° (NNW) 2,477 5.7 -37.3°
Enters shadow 20:13:31 28° 328° (NNW) 1,548 4.4 -37.7°
